SCP
0 0 0 0 0 0 0 0 0 0 0 0 0 0 0 0 0 0 0 0 0 0 0 0 0 0 0 0 0 0 0 0 0 0 0 0 0 0 0 0 0 0 0
0 0 0 0 0 0 0 0 0 0 0 0 0 0 0 0 0 0 0 0 0 0 0 0 0 0 0 0 0 0 0 0 0 0 0 0 0 0 0 0 0 0 0
0 0 0 0 0 0 0 0 0 0 0 0 0 0 0 0 0 0 0 0 0 0 0 0 0 0 0 0 0 0 0 0 0 0 0 0 0 0 0 0 0 0 0
0 0 0 0 0 0 0 0 0 0 0 0 0 0 0 0 0 0 0 0 0 0 0 0 0 0 0 0 0 0 0 0 0 0 0 0 0 0 0 0 0 0 0
0 0 0 0 0 0 0 0 0 0 0 0 0 0 0 0 0 0 0 0 0 0 0 0 0 0 0 0 0 0 0 0 0 0 0 0 0 0 0 0 0 0 0
0 0 0 0 0 0 0 0 0 0 0 0 0 0 0 0 0 0 0 0 0 0 0 0 0 0 0 0 0 0 0 0 0 0 0 0 0 0 0 0 0 0 0
0 0 0 0 0 0 0 0 0 0 0 0 0 0 0 0 0 0 0 0 0 0 0 0 0 0 0 0 0 0 0 0 0 0 0 0 0 0 0 0 0 0 0
0 0 0 0 0 0 0 0 0 0 0 0 0 0 0 0 0 0 0 0 0 0 0 0 0 0 0 0 0 0 0 0 0 0 0 0 0 0 0 0 0 0 0
0 0 0 0 0 0 0 0 0 0 0 0 0 0 0 0 0 0 0 0 0 0 0 0 0 0 0 0 0 0 0 0 0 0 0 0 0 0 0 0 0 0 0
0 0 0 0 0 0 0 0 0 0 0 0 0 0 0 0 0 0 0 0 0 0 0 0 0 0 0 0 0 0 0 0 0 0 0 0 0 0 0 0 0 0 0
0 0 0 0 0 0 0 0 0 0 0 0 0 0 0 0 0 0 0 0 0 0 0 0 0 0 0 0 0 0 0 0 0 0 0 0 0 0 0 0 0 0 0
0 0 0 0 0 0 0 0 0 0 0 0 0 0 0 0 0 0 0 0 0 0 0 0 0 0 0 0 0 0 0 0 0 0 0 0 0 0 0 0 0 0 0
0 0 0 0 0 0 0 0 0 0 0 0 0 0 0 0 0 0 0 0 0 0 0 0 0 0 0 0 0 0 0 0 0 0 0 0 0 0 0 0 0 0 0
0 0 0 0 0 0 0 0 0 0 0 0 0 0 0 0 0 0 0 0 0 0 0 0 0 0 0 0 0 0 0 0 0 0 0 0 0 0 0 0 0 0 0
0 0 0 0 0 0 0 0 0 0 0 0 0 0 0 0 0 0 0 0 0 0 0 0 0 0 0 0 0 0 0 0 0 0 0 0 0 0 0 0 0 0 0
0 0 0 0 0 0 0 0 0 0 0 0 0 0 0 0 0 0 0 0 0 0 0 0 0 0 0 0 0 0 0 0 0 0 0 0 0 0 0 0 0 0 0
0 0 0 0 0 0 0 0 0 0 0 0 0 0 0 0 0 0 0 0 0 0 0 0 0 0 0 0 0 0 0 0 0 0 0 0 0 0 0 0 0 0 0
0 0 0 0 0 0 0 0 0 0 0 0 0 0 0 0 0 0 0 0 0 0 0 0 0 0 0 0 0 0 0 0 0 0 0 0 0 0 0 0 0 0 0
0 0 0 0 0 0 0 0 0 0 0 0 0 0 0 0 0 0 0 0 0 0 0 0 0 0 0 0 0 0 0 0 0 0 0 0 0 0 0 0 0 0 0
0 0 0 0 0 0 0 0 0 0 0 0 0 0 0 0 0 0 0 0 0 0 0 0 0 0 0 0 0 0 0 0 0 0 0 0 0 0 0 0 0 0 0
0 0 0 0 0 0 0 0 0 0 0 0 0 0 0 0 0 0 0 0 0 0 0 0 0 0 0 0 0 0 0 0 0 0 0 0 0 0 0 0 0 0 0
0 0 0 0 0 0 0 0 0 0 0 0 0 0 0 0 0 0 0 0 0 0 0 0 0 0 0 0 0 0 0 0 0 0 0 0 0 0 0 0 0 0 0
0 0 0 0 0 0 0 0 0 0 0 0 0 0 0 0 0 0 0 0 0 0 0 0 0 0 0 0 0 0 0 0 0 0 0 0 0 0 0 0 0 0 0
0 0 0 0 0 0 0 0 0 0 0 0 0 0 0 0 0 0 0 0 0 0 0 0 0 0 0 0 0 0 0 0 0 0 0 0 0 0 0 0 0 0 0
0 0 0 0 0 0 0 0 0 0 0 0 0 0 0 0 0 0 0 0 0 0 0 0 0 0 0 0 0 0 0 0 0 0 0 0 0 0 0 0 0 0 0
0 0 0 0 0 0 0 0 0 0 0 0 0 0 0 0 0 0 0 0 0 0 0 0 0 0 0 0 0 0 0 0 0 0 0 0 0 0 0 0 0 0 0
Wind_Speed_500mb
35 35 38 37 46 56 64 69 72 71 75 77 80 78 75 71 65 64 57 50 52 54 54 63 61 61 55 55 52 50 49 48 47 42 45 46 47 50 49 50 49 47 42
49 45 43 42 50 55 60 68 74 73 74 78 78 80 75 77 69 65 65 64 58 62 64 63 72 68 63 66 63 64 59 61 59 54 49 42 53 59 61 61 59 57 54
59 60 51 42 50 61 63 68 71 74 73 74 76 80 77 80 74 73 69 67 67 68 69 70 71 69 73 71 73 73 73 71 69 67 53 23 37 43 46 61 66 65 62
34 42 43 42 41 38 41 52 69 75 74 75 79 81 79 78 77 77 69 64 61 63 63 67 75 70 75 77 76 80 87 84 83 76 72 74 64 43 28 46 51 61 62
12 18 28 30 29 36 47 44 49 68 69 73 77 78 79 74 70 64 67 65 63 63 64 68 72 79 83 85 71 84 81 97 99 89 74 75 85 75 74 53 61 62 60
5 7 4 6 12 17 24 27 30 49 58 59 65 74 75 72 71 68 64 59 58 57 61 78 73 78 79 76 78 80 85 88 93 88 103 94 86 69 83 83 74 72 66
2 6 7 5 3 7 13 18 25 36 47 52 55 60 65 66 65 61 58 56 55 54 57 65 68 72 68 64 67 75 65 86 84 88 103 102 94 86 86 79 79 71 69
4 1 3 3 2 3 2 6 12 20 27 35 42 45 50 52 52 47 46 46 46 45 56 44 49 45 53 59 61 70 71 75 75 80 81 88 92 102 89 95 85 73 75
10 8 6 5 6 4 2 2 2 7 13 20 25 30 34 36 36 32 31 32 32 40 32 44 50 62 64 65 67 66 61 66 66 67 68 70 74 77 79 81 80 80 60
13 12 10 9 6 4 4 5 7 10 14 18 21 24 25 25 25 27 29 31 39 47 51 51 52 53 55 58 60 62 61 66 60 61 60 61 59 65 63 66 67 71 76
9 7 4 4 4 6 8 9 9 11 13 15 17 19 19 19 18 17 20 22 22 27 29 32 35 38 41 45 49 53 56 62 64 65 64 63 61 64 66 68 69 70 71
16 11 5 2 4 5 7 9 9 10 13 16 17 20 20 17 14 11 12 15 18 23 28 29 31 33 35 38 41 45 49 51 55 55 56 57 58 59 63 68 70 71 71
10 9 6 8 12 16 19 21 24 24 23 21 20 17 15 10 7 10 16 20 25 28 29 30 31 33 35 38 39 42 44 47 49 50 53 52 54 60 61 62 62 62 64
12 11 12 14 19 22 24 24 23 21 17 14 11 8 5 6 11 18 24 28 31 34 34 35 36 38 38 39 40 43 45 47 48 48 49 52 54 56 57 59 58 58 60
17 17 16 17 22 25 25 22 18 14 10 3 4 6 11 19 25 28 32 35 35 35 33 35 36 37 38 39 41 44 45 47 46 47 50 53 56 59 60 61 62 62 64
20 22 22 21 21 19 20 16 10 7 5 4 10 15 22 25 26 24 27 30 31 32 34 35 35 36 38 40 41 43 45 48 48 48 50 54 58 59 59 61 64 65 63
28 24 24 21 18 15 12 10 7 2 2 4 6 9 13 17 19 20 19 21 24 25 27 30 33 36 39 43 46 50 51 52 51 49 50 54 55 58 61 62 66 66 65
33 30 27 23 20 20 17 14 11 8 7 8 11 12 15 19 21 23 24 26 28 30 31 33 33 33 35 40 43 47 51 53 52 52 52 57 59 58 61 62 62 61 59
33 30 28 25 22 19 16 12 9 5 2 9 14 17 20 23 26 29 32 35 38 39 40 41 42 43 42 45 45 46 48 50 49 46 46 51 54 52 51 53 51 51 50
34 30 27 23 20 16 12 8 4 4 10 15 18 20 23 25 28 30 33 36 39 42 45 46 47 46 44 46 46 48 50 52 50 46 46 49 52 49 45 46 44 43 41
30 26 22 19 16 12 7 4 6 10 12 14 15 16 18 22 27 32 36 39 41 43 46 46 45 44 44 42 47 47 48 50 51 46 41 41 42 41 35 33 38 34 31
31 27 21 17 12 8 6 8 11 13 14 15 18 21 26 30 34 38 41 42 42 42 44 43 42 42 42 44 45 45 44 46 51 43 37 33 36 35 31 28 26 23 27
29 25 18 13 9 8 10 13 15 16 16 18 22 27 32 37 41 46 49 47 47 48 47 46 44 39 42 44 46 45 45 45 47 43 34 33 32 29 26 21 19 23 26
29 21 15 11 10 12 15 18 19 21 23 27 32 37 41 44 49 51 52 52 51 54 53 51 50 48 47 49 43 44 42 41 41 42 33 31 31 27 24 20 20 25 31
24 18 15 14 15 19 22 25 29 32 36 40 44 48 51 53 55 56 57 59 56 59 59 56 56 55 54 50 48 44 41 41 39 40 35 34 32 28 24 19 21 27 34
17 13 13 15 17 22 26 30 34 37 40 42 45 49 51 52 54 56 57 55 60 59 61 62 62 61 59 57 53 50 48 42 37 39 34 28 27 27 25 23 18 20 25
Wind_Direction_500mb
256 247 247 242 241 240 239 239 238 238 236 235 236 239 237 240 238 238 238 240 244 247 247 249 244 245 249 251 251 250 251 250 252 243 250 254 257 257 256 253 253 255 254
260 260 258 252 250 248 244 240 240 238 237 237 238 239 242 243 247 246 243 241 245 247 249 255 253 247 248 248 250 250 251 248 246 241 243 248 257 258 256 253 253 252 255
269 270 273 265 258 247 245 243 241 240 238 238 237 238 238 244 246 248 247 244 246 248 247 249 254 255 248 252 251 252 250 248 248 246 236 222 239 263 259 255 254 252 256
276 274 271 259 249 241 245 245 240 238 237 236 236 236 237 236 243 246 250 255 253 254 256 258 258 257 258 252 256 254 256 249 246 241 246 247 249 251 264 263 257 250 251
296 288 264 249 248 248 238 247 242 233 234 236 237 240 238 241 245 247 249 254 255 262 258 257 262 260 256 252 262 258 265 252 246 245 250 248 246 251 252 258 259 261 258
352 12 8 238 246 248 240 245 241 233 234 236 237 239 241 238 241 246 250 254 256 262 266 263 264 268 261 258 264 267 263 261 254 266 253 250 249 265 254 252 260 260 268
55 83 87 85 157 218 231 238 239 233 231 231 232 232 234 236 242 248 251 254 261 264 270 267 266 265 266 279 273 267 283 274 265 275 263 255 257 263 261 256 259 263 267
206 152 99 112 135 151 217 235 224 221 226 230 230 228 230 235 243 249 250 258 259 263 264 262 263 266 273 274 275 275 275 270 275 274 272 272 268 263 269 265 264 272 273
207 218 220 229 239 243 260 281 222 191 193 194 199 206 217 225 233 241 246 253 257 259 258 258 266 268 267 269 269 269 272 277 275 276 275 275 274 272 273 272 267 270 264
182 187 193 206 217 239 239 220 211 201 191 188 193 199 207 218 223 228 238 247 255 261 267 269 269 270 270 269 266 264 266 270 273 276 275 275 276 275 277 276 276 272 269
155 164 168 211 241 265 262 246 222 207 199 193 193 196 198 207 213 220 233 243 255 263 266 272 275 276 273 270 269 270 269 269 269 271 273 276 278 281 282 280 278 275 272
119 107 105 195 216 210 214 207 192 172 164 160 157 158 154 155 163 187 229 254 269 277 281 284 286 286 284 281 279 278 276 274 275 279 276 276 275 276 281 280 279 278 277
130 127 127 129 136 141 143 144 143 139 137 137 140 147 148 164 209 249 267 276 280 279 279 279 279 279 282 282 284 282 281 280 278 276 275 275 273 275 278 281 281 282 282
175 163 152 150 146 142 140 141 141 143 146 151 156 163 192 247 274 281 283 285 288 290 290 290 292 289 286 285 282 278 278 277 275 275 274 277 279 281 282 281 282 282 282
186 178 169 164 164 161 155 158 162 167 171 208 274 282 295 297 297 296 294 293 290 286 288 291 290 287 289 285 282 281 279 280 278 275 275 276 279 281 281 282 284 283 282
186 176 173 171 170 173 169 171 171 179 201 269 283 293 299 304 301 302 301 300 300 303 300 299 298 297 294 289 288 285 284 284 282 280 278 278 279 279 280 281 283 280 279
188 177 168 166 162 158 155 156 161 166 310 328 342 344 342 330 321 319 315 319 320 318 319 318 319 317 312 310 308 301 297 293 287 282 279 279 279 281 279 279 279 280 280
188 182 175 165 153 144 138 128 111 85 49 9 354 336 325 320 320 318 315 312 315 318 320 321 319 318 311 310 308 304 301 298 297 296 293 292 291 288 284 284 283 282 280
173 163 156 153 152 150 150 149 148 161 273 313 314 312 309 310 311 311 312 311 311 310 311 310 309 308 306 304 304 300 296 293 291 289 285 284 285 287 287 285 284 282 279
167 166 163 159 158 159 160 166 184 297 315 310 307 305 304 306 310 311 312 311 310 307 304 302 301 301 301 301 303 303 298 297 294 293 295 292 290 291 293 290 287 281 282
163 163 163 165 168 173 184 231 291 304 306 300 298 300 305 308 311 314 314 313 310 308 304 304 302 299 297 298 297 299 301 300 297 299 295 288 287 289 293 287 283 281 280
162 164 166 170 177 197 241 274 287 294 291 291 295 301 307 312 316 318 315 311 308 309 308 305 302 298 294 295 295 295 296 297 299 304 298 287 284 286 291 279 277 269 269
160 161 169 184 209 250 273 282 284 283 285 290 296 301 307 310 310 312 308 307 307 307 308 307 303 295 291 293 292 290 291 293 293 297 295 284 282 284 293 281 265 256 253
164 169 181 204 235 259 274 277 278 285 291 294 297 299 300 301 304 306 307 306 305 302 302 302 300 296 295 297 290 286 285 286 289 292 291 277 271 274 286 275 249 239 249
170 179 199 227 253 266 275 282 288 291 292 293 295 295 297 298 298 297 299 299 300 299 297 296 293 292 291 291 289 286 285 286 284 282 281 274 269 273 280 279 259 256 249
183 207 234 251 265 276 282 286 290 292 294 296 297 299 299 299 301 302 299 297 297 296 296 296 293 291 289 288 283 284 288 285 278 277 281 277 269 268 270 272 269 263 264
Wind_Speed_850mb
35 35 38 37 46 56 64 69 72 71 75 77 80 78 75 71 65 64 57 50 52 54 54 63 61 61 55 55 52 50 49 48 47 42 45 46 47 50 49 50 49 47 42
49 45 43 42 50 55 60 68 74 73 74 78 78 80 75 77 69 65 65 64 58 62 64 63 72 68 63 66 63 64 59 61 59 54 49 42 53 59 61 61 59 57 54
59 60 51 42 50 61 63 68 71 74 73 74 76 80 77 80 74 73 69 67 67 68 69 70 71 69 73 71 73 73 73 71 69 67 53 23 37 43 46 61 66 65 62
34 42 43 42 41 38 41 52 69 75 74 75 79 81 79 78 77 77 69 64 61 63 63 67 75 70 75 77 76 80 87 84 83 76 72 74 64 43 28 46 51 61 62
12 18 28 30 29 36 47 44 49 68 69 73 77 78 79 74 70 64 67 65 63 63 64 68 72 79 83 85 71 84 81 97 99 89 74 75 85 75 74 53 61 62 60
5 7 4 6 12 17 24 27 30 49 58 59 65 74 75 72 71 68 64 59 58 57 61 78 73 78 79 76 78 80 85 88 93 88 103 94 86 69 83 83 74 72 66
2 6 7 5 3 7 13 18 25 36 47 52 55 60 65 66 65 61 58 56 55 54 57 65 68 72 68 64 67 75 65 86 84 88 103 102 94 86 86 79 79 71 69
4 1 3 3 2 3 2 6 12 20 27 35 42 45 50 52 52 47 46 46 46 45 56 44 49 45 53 59 61 70 71 75 75 80 81 88 92 102 89 95 85 73 75
10 8 6 5 6 4 2 2 2 7 13 20 25 30 34 36 36 32 31 32 32 40 32 44 50 62 64 65 67 66 61 66 66 67 68 70 74 77 79 81 80 80 60
13 12 10 9 6 4 4 5 7 10 14 18 21 24 25 25 25 27 29 31 39 47 51 51 52 53 55 58 60 62 61 66 60 61 60 61 59 65 63 66 67 71 76
9 7 4 4 4 6 8 9 9 11 13 15 17 19 19 19 18 17 20 22 22 27 29 32 35 38 41 45 49 53 56 62 64 65 64 63 61 64 66 68 69 70 71
16 11 5 2 4 5 7 9 9 10 13 16 17 20 20 17 14 11 12 15 18 23 28 29 31 33 35 38 41 45 49 51 55 55 56 57 58 59 63 68 70 71 71
10 9 6 8 12 16 19 21 24 24 23 21 20 17 15 10 7 10 16 20 25 28 29 30 31 33 35 38 39 42 44 47 49 50 53 52 54 60 61 62 62 62 64
12 11 12 14 19 22 24 24 23 21 17 14 11 8 5 6 11 18 24 28 31 34 34 35 36 38 38 39 40 43 45 47 48 48 49 52 54 56 57 59 58 58 60
17 17 16 17 22 25 25 22 18 14 10 3 4 6 11 19 25 28 32 35 35 35 33 35 36 37 38 39 41 44 45 47 46 47 50 53 56 59 60 61 62 62 64
20 22 22 21 21 19 20 16 10 7 5 4 10 15 22 25 26 24 27 30 31 32 34 35 35 36 38 40 41 43 45 48 48 48 50 54 58 59 59 61 64 65 63
28 24 24 21 18 15 12 10 7 2 2 4 6 9 13 17 19 20 19 21 24 25 27 30 33 36 39 43 46 50 51 52 51 49 50 54 55 58 61 62 66 66 65
33 30 27 23 20 20 17 14 11 8 7 8 11 12 15 19 21 23 24 26 28 30 31 33 33 33 35 40 43 47 51 53 52 52 52 57 59 58 61 62 62 61 59
33 30 28 25 22 19 16 12 9 5 2 9 14 17 20 23 26 29 32 35 38 39 40 41 42 43 42 45 45 46 48 50 49 46 46 51 54 52 51 53 51 51 50
34 30 27 23 20 16 12 8 4 4 10 15 18 20 23 25 28 30 33 36 39 42 45 46 47 46 44 46 46 48 50 52 50 46 46 49 52 49 45 46 44 43 41
30 26 22 19 16 12 7 4 6 10 12 14 15 16 18 22 27 32 36 39 41 43 46 46 45 44 44 42 47 47 48 50 51 46 41 41 42 41 35 33 38 34 31
31 27 21 17 12 8 6 8 11 13 14 15 18 21 26 30 34 38 41 42 42 42 44 43 42 42 42 44 45 45 44 46 51 43 37 33 36 35 31 28 26 23 27
29 25 18 13 9 8 10 13 15 16 16 18 22 27 32 37 41 46 49 47 47 48 47 46 44 39 42 44 46 45 45 45 47 43 34 33 32 29 26 21 19 23 26
29 21 15 11 10 12 15 18 19 21 23 27 32 37 41 44 49 51 52 52 51 54 53 51 50 48 47 49 43 44 42 41 41 42 33 31 31 27 24 20 20 25 31
24 18 15 14 15 19 22 25 29 32 36 40 44 48 51 53 55 56 57 59 56 59 59 56 56 55 54 50 48 44 41 41 39 40 35 34 32 28 24 19 21 27 34
17 13 13 15 17 22 26 30 34 37 40 42 45 49 51 52 54 56 57 55 60 59 61 62 62 61 59 57 53 50 48 42 37 39 34 28 27 27 25 23 18 20 25
Wind_Direction_850mb
256 247 247 242 241 240 239 239 238 238 236 235 236 239 237 240 238 238 238 240 244 247 247 249 244 245 249 251 251 250 251 250 252 243 250 254 257 257 256 253 253 255 254
260 260 258 252 250 248 244 240 240 238 237 237 238 239 242 243 247 246 243 241 245 247 249 255 253 247 248 248 250 250 251 248 246 241 243 248 257 258 256 253 253 252 255
269 270 273 265 258 247 245 243 241 240 238 238 237 238 238 244 246 248 247 244 246 248 247 249 254 255 248 252 251 252 250 248 248 246 236 222 239 263 259 255 254 252 256
276 274 271 259 249 241 245 245 240 238 237 236 236 236 237 236 243 246 250 255 253 254 256 258 258 257 258 252 256 254 256 249 246 241 246 247 249 251 264 263 257 250 251
296 288 264 249 248 248 238 247 242 233 234 236 237 240 238 241 245 247 249 254 255 262 258 257 262 260 256 252 262 258 265 252 246 245 250 248 246 251 252 258 259 261 258
352 12 8 238 246 248 240 245 241 233 234 236 237 239 241 238 241 246 250 254 256 262 266 263 264 268 261 258 264 267 263 261 254 266 253 250 249 265 254 252 260 260 268
55 83 87 85 157 218 231 238 239 233 231 231 232 232 234 236 242 248 251 254 261 264 270 267 266 265 266 279 273 267 283 274 265 275 263 255 257 263 261 256 259 263 267
206 152 99 112 135 151 217 235 224 221 226 230 230 228 230 235 243 249 250 258 259 263 264 262 263 266 273 274 275 275 275 270 275 274 272 272 268 263 269 265 264 272 273
207 218 220 229 239 243 260 281 222 191 193 194 199 206 217 225 233 241 246 253 257 259 258 258 266 268 267 269 269 269 272 277 275 276 275 275 274 272 273 272 267 270 264
182 187 193 206 217 239 239 220 211 201 191 188 193 199 207 218 223 228 238 247 255 261 267 269 269 270 270 269 266 264 266 270 273 276 275 275 276 275 277 276 276 272 269
155 164 168 211 241 265 262 246 222 207 199 193 193 196 198 207 213 220 233 243 255 263 266 272 275 276 273 270 269 270 269 269 269 271 273 276 278 281 282 280 278 275 272
119 107 105 195 216 210 214 207 192 172 164 160 157 158 154 155 163 187 229 254 269 277 281 284 286 286 284 281 279 278 276 274 275 279 276 276 275 276 281 280 279 278 277
130 127 127 129 136 141 143 144 143 139 137 137 140 147 148 164 209 249 267 276 280 279 279 279 279 279 282 282 284 282 281 280 278 276 275 275 273 275 278 281 281 282 282
175 163 152 150 146 142 140 141 141 143 146 151 156 163 192 247 274 281 283 285 288 290 290 290 292 289 286 285 282 278 278 277 275 275 274 277 279 281 282 281 282 282 282
186 178 169 164 164 161 155 158 162 167 171 208 274 282 295 297 297 296 294 293 290 286 288 291 290 287 289 285 282 281 279 280 278 275 275 276 279 281 281 282 284 283 282
186 176 173 171 170 173 169 171 171 179 201 269 283 293 299 304 301 302 301 300 300 303 300 299 298 297 294 289 288 285 284 284 282 280 278 278 279 279 280 281 283 280 279
188 177 168 166 162 158 155 156 161 166 310 328 342 344 342 330 321 319 315 319 320 318 319 318 319 317 312 310 308 301 297 293 287 282 279 279 279 281 279 279 279 280 280
188 182 175 165 153 144 138 128 111 85 49 9 354 336 325 320 320 318 315 312 315 318 320 321 319 318 311 310 308 304 301 298 297 296 293 292 291 288 284 284 283 282 280
173 163 156 153 152 150 150 149 148 161 273 313 314 312 309 310 311 311 312 311 311 310 311 310 309 308 306 304 304 300 296 293 291 289 285 284 285 287 287 285 284 282 279
167 166 163 159 158 159 160 166 184 297 315 310 307 305 304 306 310 311 312 311 310 307 304 302 301 301 301 301 303 303 298 297 294 293 295 292 290 291 293 290 287 281 282
163 163 163 165 168 173 184 231 291 304 306 300 298 300 305 308 311 314 314 313 310 308 304 304 302 299 297 298 297 299 301 300 297 299 295 288 287 289 293 287 283 281 280
162 164 166 170 177 197 241 274 287 294 291 291 295 301 307 312 316 318 315 311 308 309 308 305 302 298 294 295 295 295 296 297 299 304 298 287 284 286 291 279 277 269 269
160 161 169 184 209 250 273 282 284 283 285 290 296 301 307 310 310 312 308 307 307 307 308 307 303 295 291 293 292 290 291 293 293 297 295 284 282 284 293 281 265 256 253
164 169 181 204 235 259 274 277 278 285 291 294 297 299 300 301 304 306 307 306 305 302 302 302 300 296 295 297 290 286 285 286 289 292 291 277 271 274 286 275 249 239 249
170 179 199 227 253 266 275 282 288 291 292 293 295 295 297 298 298 297 299 299 300 299 297 296 293 292 291 291 289 286 285 286 284 282 281 274 269 273 280 279 259 256 249
183 207 234 251 265 276 282 286 290 292 294 296 297 299 299 299 301 302 299 297 297 296 296 296 293 291 289 288 283 284 288 285 278 277 281 277 269 268 270 272 269 263 264